| time (UTC) | temp F | wind direction | speed MPH | gust MPH | rain 1hr in | rain 24hr in | rain mn in | humidity % | barometer mb |
| 20260509000204 | 47 | 227 | 3.0 | 9.0 | 0.00 | 0.00 | 0.00 | 72 | 982.0 |
| 20260508234704 | 48 | 224 | 3.0 | 8.0 | 0.00 | 0.00 | 0.00 | 71 | 981.9 |
| 20260508233704 | 48 | 226 | 3.0 | 8.0 | 0.00 | 0.00 | 0.00 | 70 | 982.0 |
| 20260508233204 | 49 | 238 | 3.0 | 8.0 | 0.00 | 0.00 | 0.00 | 70 | 982.0 |
| 20260508231705 | 49 | 256 | 3.0 | 8.0 | 0.00 | 0.00 | 0.00 | 70 | 982.3 |
| 20260508231204 | 49 | 235 | 4.0 | 8.0 | 0.00 | 0.00 | 0.00 | 69 | 982.2 |
| 20260508230704 | 49 | 229 | 3.0 | 8.0 | 0.00 | 0.00 | 0.00 | 70 | 982.4 |
| 20260508230204 | 49 | 220 | 3.0 | 10.0 | 0.00 | 0.00 | 0.00 | 70 | 982.4 |
| 20260508224704 | 48 | 197 | 5.0 | 12.0 | 0.00 | 0.00 | 0.00 | 70 | 982.5 |
| 20260508224204 | 48 | 221 | 4.0 | 12.0 | 0.00 | 0.00 | 0.00 | 70 | 982.6 |
| 20260508223704 | 48 | 226 | 4.0 | 8.0 | 0.00 | 0.00 | 0.00 | 71 | 982.7 |
| 20260508223204 | 48 | 218 | 4.0 | 8.0 | 0.00 | 0.00 | 0.00 | 72 | 982.8 |
| 20260508221204 | 49 | 211 | 4.0 | 10.0 | 0.00 | 0.00 | 0.00 | 71 | 982.9 |
| 20260508220704 | 49 | 209 | 3.0 | 10.0 | 0.00 | 0.00 | 0.00 | 72 | 982.9 |
| 20260508214703 | 49 | 185 | 3.0 | 9.0 | 0.00 | 0.00 | 0.00 | 70 | 983.1 |
| 20260508214204 | 50 | 229 | 5.0 | 9.0 | 0.00 | 0.00 | 0.00 | 69 | 983.0 |
| 20260508213704 | 49 | 233 | 5.0 | 9.0 | 0.00 | 0.00 | 0.00 | 70 | 983.0 |
| 20260508213203 | 49 | 208 | 5.0 | 9.0 | 0.00 | 0.00 | 0.00 | 70 | 983.1 |
| 20260508211203 | 48 | 219 | 4.0 | 10.0 | 0.00 | 0.00 | 0.00 | 71 | 983.3 |
| 20260508210203 | 49 | 220 | 5.0 | 13.0 | 0.00 | 0.00 | 0.00 | 71 | 983.3 |
| 20260508204703 | 49 | 226 | 5.0 | 8.0 | 0.00 | 0.00 | 0.00 | 70 | 983.5 |
| 20260508203704 | 49 | 222 | 4.0 | 9.0 | 0.00 | 0.00 | 0.00 | 70 | 983.6 |
| 20260508201204 | 49 | 214 | 6.0 | 13.0 | 0.00 | 0.00 | 0.00 | 70 | 983.7 |
| 20260508200703 | 49 | 222 | 3.0 | 13.0 | 0.00 | 0.00 | 0.00 | 70 | 983.9 |
| 20260508200204 | 50 | 222 | 5.0 | 12.0 | 0.00 | 0.00 | 0.00 | 67 | 984.0 |
| 20260508194703 | 51 | 160 | 4.0 | 9.0 | 0.00 | 0.00 | 0.00 | 63 | 984.0 |
| 20260508193704 | 50 | 201 | 4.0 | 12.0 | 0.00 | 0.00 | 0.00 | 62 | 984.1 |
| 20260508193204 | 50 | 169 | 3.0 | 9.0 | 0.00 | 0.00 | 0.00 | 63 | 984.0 |
| 20260508191704 | 51 | 234 | 5.0 | 9.0 | 0.00 | 0.00 | 0.00 | 61 | 984.1 |
| 20260508191203 | 50 | 151 | 2.0 | 10.0 | 0.00 | 0.00 | 0.00 | 64 | 984.2 |
| 20260508190703 | 50 | 181 | 5.0 | 10.0 | 0.00 | 0.00 | 0.00 | 63 | 984.3 |
| 20260508184703 | 52 | 154 | 4.0 | 9.0 | 0.00 | 0.00 | 0.00 | 63 | 984.6 |
| 20260508183704 | 52 | 256 | 3.0 | 12.0 | 0.00 | 0.00 | 0.00 | 58 | 984.7 |
| 20260508183204 | 51 | 221 | 4.0 | 12.0 | 0.00 | 0.00 | 0.00 | 61 | 984.5 |
| 20260508181703 | 52 | 183 | 5.0 | 14.0 | 0.00 | 0.00 | 0.00 | 60 | 984.9 |
| 20260508181203 | 53 | 200 | 5.0 | 14.0 | 0.00 | 0.00 | 0.00 | 58 | 985.0 |
| 20260508180705 | 52 | 228 | 5.0 | 9.0 | 0.00 | 0.00 | 0.00 | 60 | 985.0 |
| 20260508174703 | 52 | 203 | 4.0 | 13.0 | 0.00 | 0.00 | 0.00 | 59 | 985.1 |
| 20260508174203 | 52 | 141 | 5.0 | 13.0 | 0.00 | 0.00 | 0.00 | 60 | 985.2 |
| 20260508173704 | 52 | 218 | 3.0 | 13.0 | 0.00 | 0.00 | 0.00 | 61 | 985.5 |
| 20260508173204 | 52 | 194 | 3.0 | 12.0 | 0.00 | 0.00 | 0.00 | 62 | 985.4 |
| 20260508171704 | 52 | 170 | 3.0 | 10.0 | 0.00 | 0.00 | 0.00 | 64 | 985.8 |
| 20260508170703 | 51 | 150 | 5.0 | 9.0 | 0.00 | 0.00 | 0.00 | 65 | 985.9 |
| 20260508170204 | 51 | 261 | 4.0 | 10.0 | 0.00 | 0.00 | 0.00 | 66 | 986.0 |
| 20260508164704 | 52 | 153 | 3.0 | 8.0 | 0.00 | 0.00 | 0.00 | 67 | 986.3 |
| 20260508164204 | 52 | 203 | 3.0 | 8.0 | 0.00 | 0.00 | 0.00 | 65 | 986.4 |
| 20260508163704 | 52 | 121 | 4.0 | 12.0 | 0.00 | 0.00 | 0.00 | 64 | 986.3 |
| 20260508163204 | 52 | 187 | 4.0 | 12.0 | 0.00 | 0.00 | 0.00 | 66 | 986.4 |
| 20260508161704 | 51 | 233 | 3.0 | 12.0 | 0.00 | 0.00 | 0.00 | 68 | 986.4 |
| 20260508161205 | 52 | 158 | 2.0 | 9.0 | 0.00 | 0.00 | 0.00 | 66 | 986.5 |
| 20260508160704 | 52 | 221 | 5.0 | 9.0 | 0.00 | 0.00 | 0.00 | 67 | 986.5 |
| 20260508154704 | 53 | 192 | 3.0 | 8.0 | 0.00 | 0.00 | 0.00 | 63 | 986.6 |
| 20260508153705 | 53 | 286 | 2.0 | 8.0 | 0.00 | 0.00 | 0.00 | 66 | 986.7 |
| 20260508153204 | 52 | 164 | 4.0 | 8.0 | 0.00 | 0.00 | 0.00 | 65 | 986.7 |
| 20260508151704 | 52 | 199 | 2.0 | 8.0 | 0.00 | 0.00 | 0.00 | 65 | 986.7 |
| 20260508151204 | 52 | 216 | 4.0 | 8.0 | 0.00 | 0.00 | 0.00 | 64 | 986.7 |
| 20260508150704 | 52 | 202 | 3.0 | 9.0 | 0.00 | 0.00 | 0.00 | 64 | 986.7 |
| 20260508150204 | 52 | 252 | 3.0 | 9.0 | 0.00 | 0.00 | 0.00 | 65 | 986.9 |
| 20260508144703 | 51 | 5 | 3.0 | 7.0 | 0.00 | 0.00 | 0.00 | 64 | 986.8 |
| 20260508144204 | 51 | 214 | 3.0 | 6.0 | 0.00 | 0.00 | 0.00 | 68 | 986.8 |
| 20260508143704 | 51 | 225 | 3.0 | 6.0 | 0.00 | 0.00 | 0.00 | 69 | 986.9 |
| 20260508143204 | 51 | 31 | 3.0 | 6.0 | 0.00 | 0.00 | 0.00 | 67 | 986.9 |
| 20260508141706 | 50 | 179 | 2.0 | 7.0 | 0.00 | 0.00 | 0.00 | 71 | 987.0 |
| 20260508140204 | 49 | 206 | 3.0 | 7.0 | 0.00 | 0.00 | 0.00 | 72 | 987.1 |
| 20260508134703 | 48 | 208 | 3.0 | 7.0 | 0.00 | 0.00 | 0.00 | 73 | 987.1 |
| 20260508134204 | 48 | 191 | 2.0 | 7.0 | 0.00 | 0.00 | 0.00 | 74 | 987.1 |
| 20260508133705 | 48 | 217 | 2.0 | 7.0 | 0.00 | 0.00 | 0.00 | 73 | 987.1 |
| 20260508133204 | 48 | 191 | 3.0 | 7.0 | 0.00 | 0.00 | 0.00 | 73 | 987.1 |
| 20260508131705 | 48 | 219 | 3.0 | 8.0 | 0.00 | 0.00 | 0.00 | 73 | 987.1 |
| 20260508131203 | 48 | 181 | 4.0 | 8.0 | 0.00 | 0.00 | 0.00 | 72 | 987.1 |
| 20260508130704 | 49 | 232 | 3.0 | 7.0 | 0.00 | 0.00 | 0.00 | 72 | 987.1 |
| 20260508130203 | 49 | 216 | 2.0 | 6.0 | 0.00 | 0.00 | 0.00 | 70 | 987.1 |
| 20260508124704 | 48 | 235 | 3.0 | 8.0 | 0.00 | 0.00 | 0.00 | 66 | 987.2 |
| 20260508124203 | 48 | 230 | 4.0 | 8.0 | 0.00 | 0.00 | 0.00 | 66 | 987.1 |
| 20260508123704 | 48 | 209 | 2.0 | 7.0 | 0.00 | 0.00 | 0.00 | 67 | 987.1 |
| 20260508123203 | 47 | 228 | 3.0 | 7.0 | 0.00 | 0.00 | 0.00 | 68 | 987.1 |
| 20260508121204 | 47 | 210 | 2.0 | 6.0 | 0.00 | 0.00 | 0.00 | 71 | 987.2 |
| 20260508120704 | 46 | 247 | 1.0 | 7.0 | 0.00 | 0.00 | 0.00 | 73 | 987.1 |
| 20260508120204 | 46 | 223 | 3.0 | 7.0 | 0.00 | 0.00 | 0.00 | 73 | 987.1 |
| 20260508114704 | 44 | 206 | 3.0 | 5.0 | 0.00 | 0.00 | 0.00 | 76 | 987.0 |
| 20260508114205 | 44 | 131 | 2.0 | 6.0 | 0.00 | 0.00 | 0.00 | 77 | 987.0 |
| 20260508113704 | 43 | 205 | 3.0 | 6.0 | 0.00 | 0.00 | 0.00 | 78 | 987.0 |
| 20260508113204 | 43 | 182 | 3.0 | 5.0 | 0.00 | 0.00 | 0.00 | 78 | 987.0 |
| 20260508111706 | 43 | 197 | 3.0 | 6.0 | 0.00 | 0.00 | 0.00 | 78 | 987.0 |
| 20260508111206 | 42 | 218 | 2.0 | 6.0 | 0.00 | 0.00 | 0.00 | 78 | 987.0 |
| 20260508020205 | 41 | 223 | 2.0 | 6.0 | 0.00 | 0.00 | 0.00 | 78 | 989.1 |
| 20260508014703 | 41 | 222 | 2.0 | 6.0 | 0.00 | 0.00 | 0.00 | 78 | 988.9 |
| 20260508014205 | 41 | 214 | 3.0 | 6.0 | 0.00 | 0.00 | 0.00 | 78 | 988.8 |
| 20260508013704 | 41 | 227 | 3.0 | 6.0 | 0.00 | 0.00 | 0.00 | 78 | 988.8 |
| 20260508013205 | 41 | 201 | 2.0 | 6.0 | 0.00 | 0.00 | 0.00 | 78 | 988.7 |
| 20260508011703 | 41 | 220 | 2.0 | 7.0 | 0.00 | 0.00 | 0.00 | 79 | 988.5 |
| 20260508011204 | 41 | 222 | 2.0 | 7.0 | 0.00 | 0.00 | 0.00 | 79 | 988.5 |
| 20260508010703 | 41 | 216 | 3.0 | 7.0 | 0.00 | 0.00 | 0.00 | 79 | 988.4 |
| 20260508010203 | 41 | 227 | 3.0 | 6.0 | 0.00 | 0.00 | 0.00 | 79 | 988.4 |
| 20260508004705 | 41 | 224 | 2.0 | 7.0 | 0.00 | 0.00 | 0.00 | 79 | 988.3 |
| 20260508004203 | 41 | 207 | 2.0 | 7.0 | 0.00 | 0.00 | 0.00 | 79 | 988.3 |
| 20260508003703 | 42 | 223 | 2.0 | 7.0 | 0.00 | 0.00 | 0.00 | 78 | 988.2 |
| 20260508001703 | 43 | 219 | 3.0 | 9.0 | 0.00 | 0.00 | 0.00 | 76 | 988.2 |
| 20260508001204 | 43 | 215 | 2.0 | 9.0 | 0.00 | 0.00 | 0.00 | 74 | 988.2 |